Temperature
12 12 12 11 11 11 10 10 9 9 9 9 8 8 8 7 7 7 7 6 6 6 5 5 5 5 4 4 4 4 4 4 4 4 3 3 3 3 3 3 3 3 2
11 11 11 10 10 10 9 9 8 8 8 8 7 7 7 7 6 6 6 6 5 5 5 4 4 4 4 3 3 3 3 3 3 2 2 2 2 2 2 2 2 2 2
11 10 10 10 9 9 8 8 8 7 7 7 7 6 6 6 5 5 5 5 4 4 4 3 3 3 3 2 2 2 2 2 2 1 1 2 2 2 2 2 2 2 2
10 9 9 9 8 8 8 7 7 7 7 6 6 6 5 5 5 5 4 4 3 3 3 3 3 2 2 2 2 1 1 1 1 1 1 1 1 2 2 1 1 1 1
9 8 8 7 7 7 7 7 6 6 6 5 5 5 5 4 4 4 4 4 3 3 3 2 2 2 2 2 1 1 1 1 1 1 1 1 1 1 1 1 1 1 1
8 7 7 7 6 6 6 6 5 5 5 5 4 4 4 4 4 3 3 3 3 3 2 2 2 2 2 1 1 1 1 1 1 1 1 1 1 1 1 1 1 1 1
7 7 6 6 6 5 5 5 5 4 4 4 3 3 3 3 3 3 3 3 3 2 1 1 1 1 1 1 1 1 1 1 1 1 1 1 1 1 1 1 0 0 0
6 6 5 5 5 5 4 4 4 4 3 3 3 2 2 2 2 2 2 2 1 1 1 1 1 1 1 1 1 1 2 2 2 1 1 1 1 1 0 0 0 0 0
5 5 5 5 4 4 4 4 3 3 3 3 2 2 2 1 1 1 1 1 1 1 1 1 1 1 1 1 1 1 2 2 2 2 1 1 1 1 0 0 0 0 0
5 4 4 4 4 4 3 3 3 3 3 2 2 2 1 1 1 1 0 1 0 0 0 1 1 1 1 1 1 1 2 2 2 2 2 1 1 1 0 0 -0 0 0
4 4 4 4 4 3 3 3 3 3 3 2 2 2 1 1 1 0 0 -0 -0 0 0 0 1 1 1 1 1 1 1 1 1 2 1 1 1 1 0 -0 -0 -0 -0
4 4 4 4 4 3 3 3 3 3 3 2 2 2 1 1 1 0 -0 -0 -0 -0 -0 0 1 1 1 2 2 2 2 2 2 2 2 1 1 1 0 0 -0 -0 -0
4 4 4 4 3 3 3 3 3 3 3 3 2 2 1 1 0 -0 -0 -1 -1 -1 -0 0 1 1 2 2 2 2 2 2 2 2 2 1 1 1 0 0 0 0 0
4 4 4 4 3 3 3 3 3 3 3 2 2 2 1 1 0 0 -0 -0 -0 -0 0 1 1 2 2 2 2 2 2 2 2 2 2 1 1 1 1 0 0 0 0
4 4 4 4 4 4 4 3 3 3 3 2 2 1 1 0 0 -0 -0 -0 -0 0 1 1 1 2 2 3 3 3 3 3 3 2 2 2 1 1 1 1 0 0 0
5 5 5 5 4 4 4 4 3 3 2 2 1 1 0 0 -0 -0 -0 -0 -0 0 1 1 1 2 2 3 3 3 3 3 3 3 2 2 2 1 1 1 1 1 0
5 5 5 5 5 5 4 4 3 3 2 2 1 1 0 0 -0 -0 -0 0 0 0 1 1 1 2 2 3 3 3 3 3 3 3 3 2 2 2 1 1 1 1 1
5 5 5 5 5 5 5 4 4 3 2 1 1 0 0 -0 -0 -0 -0 0 0 1 1 1 2 2 2 3 3 3 4 4 4 3 3 3 3 2 2 2 2 1 1
5 5 5 5 5 5 5 4 4 3 2 1 1 0 -0 -0 -0 -0 0 0 1 1 1 2 2 2 3 3 3 4 4 4 4 4 4 4 3 3 3 3 3 2 2
5 5 5 5 5 5 4 4 3 3 2 1 1 0 0 -0 -0 0 0 0 1 1 2 2 2 3 3 3 4 4 4 4 4 4 4 4 4 4 4 4 4 3 3
6 5 5 5 5 4 4 4 3 2 2 1 1 1 0 0 0 0 0 1 1 1 2 2 3 3 3 4 4 4 4 4 4 4 5 5 5 5 5 5 5 5 4
6 6 5 5 4 4 4 3 3 2 2 1 1 1 0 0 0 1 1 1 1 2 2 2 3 3 3 4 4 4 4 4 4 4 5 5 5 5 5 5 5 5 5
6 6 5 5 4 4 4 3 3 2 2 2 1 1 1 1 1 1 1 1 2 2 2 3 3 3 4 4 4 4 4 4 5 5 5 5 5 5 5 5 5 5 6
6 5 5 5 4 4 4 3 3 3 2 2 2 1 1 1 1 1 1 2 2 2 2 3 3 4 4 4 4 4 5 5 5 5 5 5 5 5 5 5 6 6 6
6 5 5 4 4 4 4 4 3 3 2 2 1 1 1 1 1 1 1 2 2 2 2 3 3 4 4 4 5 5 5 5 5 5 5 5 5 5 6 6 6 6 6
5 5 5 4 4 4 4 3 3 2 2 2 1 1 1 1 1 1 1 2 2 2 2 3 3 4 4 4 4 5 5 5 5 5 5 5 5 5 6 6 6 6 6
Wind_Speed
14 14 13 12 12 13 12 11 10 10 8 8 8 7 6 5 4 4 4 4 5 5 5 6 6 6 5 5 6 6 6 7 10 9 8 8 10 10 13 17 19 19 19
14 14 14 13 13 13 12 11 9 9 8 7 6 6 5 6 5 5 5 6 6 6 6 6 6 7 7 6 6 7 7 7 9 12 10 10 11 11 9 8 15 17 16
14 14 13 13 12 12 11 10 9 9 8 7 7 6 5 4 4 5 6 6 6 6 6 6 6 6 6 6 7 7 7 8 8 10 12 10 10 10 10 11 10 9 16
14 13 13 12 11 11 10 10 9 8 8 7 5 5 5 8 10 10 10 8 6 5 6 6 6 6 6 6 7 7 7 8 9 10 11 11 10 10 9 9 10 8 10
13 13 12 11 11 10 10 9 8 7 6 5 4 5 6 9 10 10 9 9 9 7 7 6 7 8 7 4 7 7 8 9 10 11 11 12 11 10 11 9 11 10 11
12 12 12 11 10 9 8 7 6 6 5 5 6 7 9 9 10 11 9 8 9 8 7 6 8 7 5 6 9 11 12 12 12 12 12 13 13 12 10 10 10 11 7
11 11 10 10 9 7 6 6 5 5 6 6 6 7 8 8 8 8 10 8 9 8 6 6 8 9 7 6 9 13 13 15 15 12 13 12 13 12 11 11 10 11 11
10 9 8 8 7 5 5 5 5 5 5 5 5 6 6 6 5 6 11 8 8 6 6 6 6 7 4 6 10 12 12 12 13 11 9 10 11 11 10 10 11 10 10
9 7 6 6 5 4 4 4 4 4 3 3 4 4 3 5 3 5 9 9 7 7 7 7 6 6 3 7 10 12 13 12 15 16 17 17 19 16 11 7 8 8 8
7 5 4 4 4 4 4 4 3 2 2 2 3 2 2 3 4 2 7 7 8 8 7 7 5 4 7 10 10 11 13 13 13 15 13 14 10 8 8 5 6 7 6
5 4 4 4 4 5 4 3 2 2 2 2 1 1 1 2 4 4 4 6 8 9 9 7 6 5 10 13 12 11 14 14 13 12 10 8 6 5 5 5 4 5 6
5 5 4 2 3 5 3 1 1 2 1 1 1 2 1 2 2 3 6 8 8 9 9 8 8 13 16 17 14 14 17 14 9 9 7 5 5 5 6 5 7 6 6
4 4 4 4 4 2 1 1 0 1 2 2 2 3 3 3 2 2 6 10 11 8 8 11 14 17 16 13 12 14 12 8 8 7 6 5 4 4 5 5 6 6 7
4 4 4 4 3 2 1 1 2 3 4 5 4 4 4 3 6 7 8 8 9 9 9 12 15 15 12 10 11 9 6 6 6 5 4 4 3 3 4 4 4 5 5
3 3 3 4 3 2 2 3 3 6 5 5 6 6 6 6 6 6 6 7 8 9 11 10 8 7 7 7 8 8 7 7 5 3 2 3 3 3 4 4 4 4 4
1 1 2 2 2 2 3 4 8 8 10 9 7 5 4 5 7 10 10 11 13 12 9 7 8 8 8 9 9 9 9 7 5 3 3 3 3 4 4 4 4 4 5
1 2 3 2 1 2 2 3 6 5 5 4 2 3 5 7 8 10 11 13 13 11 6 6 7 7 8 9 9 9 8 6 4 3 3 3 3 3 3 4 4 4 4
2 1 3 4 4 3 2 2 3 6 5 4 3 4 6 7 7 9 11 10 7 6 5 6 7 8 8 9 9 8 6 5 4 3 2 2 2 2 2 3 3 4 3
3 1 2 4 4 2 2 3 4 5 4 4 3 2 4 5 5 7 8 5 6 6 7 7 7 8 9 9 7 6 6 5 5 3 2 1 1 2 2 2 1 1 2
1 2 2 5 3 3 3 4 5 5 5 4 3 4 3 3 3 5 5 5 5 6 7 7 8 9 8 7 7 6 6 6 6 5 4 3 2 2 3 3 2 1 0
1 5 4 3 4 5 5 5 5 5 4 3 3 3 2 2 3 4 5 5 5 6 7 7 8 8 7 7 7 7 7 7 8 8 7 5 5 4 4 5 4 2 0
5 3 4 6 6 6 4 4 4 4 3 3 3 2 2 2 2 3 4 5 5 5 6 6 8 7 7 7 7 7 7 8 9 9 9 7 6 6 6 6 6 6 5
3 4 5 5 5 2 0 3 3 3 3 3 3 3 2 2 3 4 4 5 5 6 9 9 6 7 12 13 12 8 9 9 9 10 10 9 7 6 6 6 7 7 6
5 5 5 4 3 2 3 4 4 4 4 4 4 4 4 4 4 5 5 5 6 8 10 10 11 13 15 15 15 14 13 13 13 12 12 10 8 7 6 6 6 8 7
5 5 4 4 3 3 4 4 5 5 5 5 5 5 5 5 5 5 5 5 6 7 10 12 13 15 17 18 18 17 20 21 19 16 13 8 8 9 8 7 6 7 9
6 4 4 4 3 4 5 5 6 6 6 6 6 5 5 5 5 5 5 6 6 7 10 12 15 18 19 18 20 23 24 25 25 23 15 9 8 10 10 7 8 7 8
Wind_Direction
82 86 90 93 95 96 98 100 101 102 104 105 105 103 99 87 65 41 34 34 22 16 358 2 359 343 334 338 326 317 321 327 317 315 318 322 324 313 309 304 301 296 292
85 87 88 89 91 94 95 95 97 98 97 96 92 87 85 76 55 35 22 30 20 11 4 355 345 340 346 332 335 331 326 322 314 312 313 309 304 302 296 297 302 301 305
92 91 90 91 93 94 95 93 90 87 84 81 79 75 68 63 54 38 31 25 17 360 351 344 340 334 329 340 336 320 316 317 316 307 304 302 299 299 301 300 298 300 303
96 95 93 93 94 94 91 87 85 83 81 76 70 65 56 52 45 33 21 1 354 350 340 334 328 326 329 336 319 312 320 320 310 304 301 301 300 300 303 304 304 301 302
96 95 94 92 90 89 87 85 82 78 79 69 62 60 63 64 45 33 6 353 348 336 328 330 326 319 305 291 297 310 308 303 304 300 301 303 303 307 307 306 303 303 295
93 94 94 93 91 89 87 84 79 71 61 53 50 57 62 69 60 41 13 345 328 318 324 332 318 312 344 291 284 291 289 291 295 296 298 298 301 303 305 305 304 303 300
92 94 95 95 92 88 90 87 79 71 65 56 52 64 86 82 58 30 1 327 306 306 319 318 317 321 331 342 326 313 302 294 285 285 291 298 304 307 308 308 306 306 304
94 96 97 99 97 94 88 79 69 65 66 69 63 59 90 96 63 17 346 319 305 311 312 307 308 313 1 350 324 312 303 302 299 299 298 303 306 307 306 304 300 298 296
101 101 103 105 106 102 93 85 74 71 63 68 79 60 80 126 97 18 354 325 323 333 322 316 316 317 18 336 319 310 309 308 312 318 318 309 304 304 309 309 304 302 304
107 107 107 103 99 90 78 73 76 68 51 49 68 42 28 115 139 27 345 334 336 330 318 316 324 321 321 314 315 310 306 308 315 316 313 312 312 321 331 314 311 312 315
125 123 117 115 110 95 83 73 56 43 45 17 5 5 45 88 164 213 295 327 334 326 320 322 322 312 310 307 305 295 288 299 306 303 302 306 318 330 326 318 310 312 313
134 124 116 116 117 105 103 93 36 350 318 316 336 344 35 99 114 208 259 286 298 310 313 318 322 320 311 306 302 288 291 299 296 298 305 316 327 327 325 320 316 307 293
142 135 121 99 86 108 168 200 206 3 343 350 3 5 15 34 63 278 282 288 291 296 308 314 310 303 302 300 295 297 298 292 294 302 314 318 316 318 322 322 320 321 317
150 151 153 155 173 181 247 340 45 23 16 4 13 11 10 28 25 3 346 335 336 332 335 321 310 300 297 291 297 301 293 289 295 303 310 310 317 328 328 328 327 334 337
158 177 186 186 192 204 181 52 55 68 65 33 17 7 7 8 12 344 332 329 329 319 322 312 315 326 334 335 331 326 325 326 326 337 343 339 343 347 341 337 335 339 350
159 208 234 216 216 245 168 127 69 103 108 90 68 31 37 34 341 333 327 318 310 307 313 315 326 334 336 333 330 328 328 332 341 15 25 3 359 359 355 355 0 1 2
345 326 311 309 292 270 256 167 150 120 108 109 88 355 337 330 326 327 327 325 313 308 310 319 328 329 327 324 322 322 324 332 357 44 46 15 3 359 356 359 4 1 1
306 315 304 306 305 308 321 354 126 153 162 168 199 250 285 307 321 329 331 332 334 338 334 330 326 325 323 320 320 323 332 346 13 49 55 27 0 355 353 346 358 358 359
299 335 307 298 299 326 358 42 69 91 101 111 136 192 259 295 303 320 329 339 338 338 336 329 324 321 319 318 322 332 347 359 14 33 38 30 350 337 339 331 340 321 327
151 84 311 307 338 36 47 65 71 76 79 76 66 40 18 2 352 344 342 340 336 333 329 327 322 318 319 325 333 347 3 8 7 9 2 357 344 325 326 325 325 337 358
116 154 212 289 37 52 53 66 71 66 66 76 78 69 351 339 337 335 335 333 328 323 320 321 319 321 333 341 348 3 18 18 8 358 354 354 355 348 341 342 339 341 321
353 62 65 53 58 50 40 67 72 71 69 82 115 144 241 302 348 338 335 332 322 315 315 316 323 335 349 355 2 14 20 12 359 351 347 347 352 352 350 351 352 358 7
338 64 82 82 92 130 126 78 80 75 73 74 77 81 72 29 13 359 348 337 329 329 329 330 336 358 10 8 14 23 16 359 341 335 340 340 346 352 352 352 357 5 14
51 53 60 67 65 83 85 78 74 75 76 73 68 65 57 43 25 12 354 336 335 337 343 354 9 15 22 20 14 15 7 350 337 330 329 329 348 2 358 358 5 9 13
61 63 61 57 53 65 73 75 72 67 68 69 65 59 57 47 28 11 356 349 352 358 4 15 27 21 16 19 15 6 358 358 356 347 331 330 359 8 0 6 17 22 25
63 63 69 72 66 67 72 76 73 70 69 67 67 63 59 49 30 21 9 3 4 7 10 18 31 29 18 11 6 5 7 6 3 2 359 355 12 17 4 9 25 29 34
Height
1508 1511 1513 1516 1519 1521 1524 1527 1530 1532 1535 1537 1539 1541 1542 1544 1545 1546 1546 1547 1547 1547 1546 1546 1544 1543 1542 1540 1539 1537 1535 1533 1528 1524 1523 1519 1516 1511 1508 1504 1500 1496 1493
1512 1515 1517 1520 1522 1525 1527 1530 1533 1535 1537 1538 1540 1542 1543 1544 1544 1545 1546 1545 1545 1544 1544 1543 1542 1540 1539 1537 1535 1533 1531 1528 1525 1519 1516 1513 1510 1506 1502 1498 1494 1490 1487
1517 1519 1521 1524 1526 1528 1530 1533 1535 1536 1538 1539 1541 1542 1543 1544 1544 1544 1544 1544 1543 1542 1541 1540 1538 1537 1535 1533 1531 1529 1527 1524 1521 1516 1511 1508 1504 1501 1496 1492 1488 1484 1480
1521 1523 1525 1528 1530 1531 1533 1535 1536 1538 1539 1540 1542 1542 1543 1543 1542 1542 1541 1541 1541 1540 1539 1537 1536 1534 1532 1530 1527 1525 1523 1520 1516 1512 1507 1503 1499 1495 1491 1486 1481 1477 1473
1525 1527 1529 1531 1533 1534 1535 1537 1538 1539 1540 1541 1542 1542 1542 1541 1540 1540 1540 1539 1538 1537 1536 1534 1533 1531 1529 1527 1524 1521 1518 1515 1512 1508 1503 1499 1494 1490 1486 1481 1475 1470 1466
1528 1530 1532 1533 1535 1536 1537 1538 1539 1539 1540 1541 1541 1541 1540 1539 1539 1538 1537 1536 1535 1534 1533 1531 1530 1529 1526 1524 1521 1518 1515 1512 1508 1504 1499 1494 1489 1485 1480 1475 1470 1465 1459
1531 1532 1533 1535 1537 1538 1539 1539 1539 1540 1540 1540 1540 1540 1540 1539 1538 1537 1535 1533 1532 1531 1530 1529 1527 1526 1523 1520 1517 1514 1511 1508 1505 1501 1496 1491 1486 1481 1475 1470 1466 1461 1457
1532 1534 1535 1536 1537 1539 1540 1540 1540 1540 1540 1540 1540 1540 1539 1538 1537 1535 1533 1531 1530 1529 1528 1526 1524 1522 1519 1517 1513 1509 1506 1503 1501 1497 1493 1487 1482 1476 1472 1467 1462 1457 1453
1535 1536 1537 1538 1539 1540 1541 1541 1540 1540 1541 1541 1540 1539 1538 1537 1536 1534 1531 1529 1528 1527 1525 1524 1522 1519 1517 1514 1510 1505 1502 1499 1496 1493 1489 1484 1478 1473 1467 1462 1457 1453 1449
1537 1538 1539 1540 1541 1541 1541 1541 1541 1541 1541 1541 1540 1539 1538 1536 1535 1533 1530 1527 1525 1524 1522 1521 1519 1517 1514 1511 1507 1503 1499 1495 1492 1487 1484 1479 1474 1469 1464 1460 1455 1451 1447
1539 1540 1541 1542 1542 1542 1542 1542 1542 1542 1541 1541 1540 1539 1537 1536 1533 1531 1528 1526 1523 1521 1520 1518 1517 1514 1511 1508 1505 1501 1498 1494 1489 1484 1480 1476 1472 1467 1462 1457 1453 1450 1446
1541 1542 1543 1543 1543 1543 1542 1542 1542 1542 1541 1541 1539 1538 1537 1535 1532 1529 1527 1525 1522 1520 1518 1516 1514 1512 1509 1506 1503 1500 1496 1492 1487 1482 1478 1474 1470 1465 1461 1457 1453 1449 1446
1542 1543 1544 1544 1544 1544 1544 1543 1543 1542 1541 1541 1539 1538 1536 1534 1531 1528 1526 1523 1521 1519 1517 1515 1512 1510 1507 1504 1501 1498 1494 1490 1485 1481 1477 1473 1469 1465 1461 1458 1454 1450 1447
1543 1544 1544 1544 1544 1544 1544 1544 1543 1542 1541 1540 1538 1537 1535 1533 1530 1527 1524 1521 1519 1517 1515 1513 1511 1508 1506 1503 1500 1497 1493 1489 1484 1480 1476 1473 1469 1466 1463 1459 1455 1451 1447
1543 1544 1544 1544 1544 1543 1543 1543 1542 1541 1540 1539 1537 1535 1533 1531 1528 1525 1522 1520 1518 1516 1514 1512 1510 1508 1505 1503 1499 1496 1492 1488 1484 1480 1477 1473 1470 1468 1464 1461 1457 1453 1449
1544 1544 1544 1544 1543 1543 1542 1541 1540 1540 1539 1538 1536 1534 1531 1529 1527 1524 1522 1520 1519 1517 1515 1513 1511 1509 1506 1503 1499 1496 1492 1489 1485 1482 1478 1475 1473 1470 1467 1463 1460 1456 1452
1545 1544 1544 1544 1543 1542 1541 1540 1539 1538 1538 1537 1535 1533 1531 1529 1526 1524 1522 1521 1519 1517 1516 1514 1512 1510 1507 1504 1500 1497 1494 1491 1487 1484 1481 1478 1475 1472 1469 1466 1463 1459 1455
1545 1544 1543 1543 1542 1541 1541 1540 1538 1537 1536 1536 1535 1533 1531 1529 1527 1524 1523 1521 1520 1518 1517 1515 1513 1511 1508 1505 1502 1499 1496 1493 1490 1487 1484 1481 1478 1475 1472 1469 1466 1462 1459
1544 1543 1542 1542 1541 1541 1540 1539 1539 1538 1537 1536 1535 1533 1531 1529 1527 1525 1523 1522 1520 1519 1518 1517 1514 1512 1509 1507 1504 1502 1499 1496 1494 1491 1488 1485 1482 1479 1475 1472 1469 1466 1463
1542 1542 1541 1541 1541 1540 1540 1540 1539 1539 1538 1537 1536 1535 1533 1530 1528 1526 1525 1523 1522 1521 1520 1518 1516 1513 1511 1509 1506 1504 1502 1499 1497 1494 1491 1488 1485 1482 1478 1475 1472 1469 1466
1541 1541 1541 1541 1541 1541 1541 1541 1540 1540 1539 1538 1537 1535 1533 1531 1529 1528 1526 1525 1524 1523 1522 1520 1517 1515 1513 1511 1509 1507 1505 1502 1499 1497 1495 1492 1489 1485 1482 1478 1475 1472 1468
1542 1542 1542 1542 1542 1541 1542 1542 1541 1541 1540 1539 1538 1536 1535 1533 1531 1529 1528 1527 1526 1525 1524 1522 1520 1518 1516 1513 1511 1509 1507 1505 1502 1499 1497 1495 1492 1488 1485 1482 1478 1475 1472
1543 1542 1542 1542 1542 1542 1543 1543 1542 1542 1541 1540 1539 1538 1536 1535 1533 1531 1530 1529 1528 1527 1526 1524 1522 1520 1518 1516 1514 1512 1510 1507 1505 1502 1499 1497 1494 1491 1488 1485 1482 1478 1476
1543 1543 1543 1544 1544 1544 1544 1544 1543 1543 1542 1542 1541 1540 1538 1536 1535 1533 1532 1532 1531 1530 1529 1527 1525 1523 1521 1518 1516 1515 1513 1510 1508 1505 1503 1500 1497 1494 1491 1488 1485 1483 1480
1544 1544 1544 1545 1545 1545 1545 1545 1545 1544 1544 1543 1542 1541 1540 1538 1536 1535 1535 1534 1533 1532 1531 1530 1527 1525 1523 1521 1519 1518 1516 1514 1511 1509 1506 1503 1501 1498 1495 1492 1490 1487 1484
1546 1546 1546 1546 1546 1546 1546 1546 1546 1546 1546 1545 1544 1543 1541 1540 1539 1538 1537 1537 1536 1535 1534 1532 1530 1528 1526 1524 1522 1520 1519 1517 1514 1512 1509 1506 1504 1501 1498 1496 1494 1491 1489